Location: Pioltello
(45.5000°N, 9.3333°E)
Time: 05:32:01
(UTC+00:00)

Daily predictions for brighter satellites

Satellite Brightness Start Highest point End
(mag) Time Altitude Azimuth Time Altitude Azimuth Time Altitude Azimuth
FALCON 9 R/B 4.2 02:59:04 32° SE 02:59:04 32° SE 03:10:25 10° E
USA 234 3.7 03:38:02 10° ENE 03:44:26 54° SE 03:46:10 43° S
COSMO-SKYMED 1 4.4 03:43:38 10° SE 03:47:22 29° ENE 03:47:26 29° ENE
GEOS 3 Rocket 4.4 03:47:23 10° ESE 03:52:11 43° NE 03:52:23 42° NE
Cosmos 2263 Rocket 2.5 03:57:50 56° NE 03:57:50 56° NE 04:02:13 10° NNE
ALOS 4.4 03:54:55 10° NE 03:58:46 25° E 04:02:35 10° SSE
Cosmos 1452 Rocket 3.6 04:10:27 70° NNE 04:10:27 70° NNE 04:15:09 10° NNE
Okean O Rocket 4.0 04:09:15 10° NE 04:12:43 22° E 04:16:11 10° SE
CZ-4C R/B 4.3 04:16:36 23° SW 04:16:36 23° SW 04:20:20 10° SSW
Meteor 1-20 Rocket 4.2 04:07:47 10° S 04:13:39 89° E 04:19:30 10° N
Cosmos 1850 Rocket 4.1 04:13:20 66° N 04:14:01 77° ENE 04:19:22 10° SSE
Cosmos 2026 Rocket 3.9 04:15:30 16° N 04:20:35 86° E 04:26:52 10° S
Cosmos 1844 Rocket 4.3 04:23:16 10° SSE 04:28:12 33° ESE 04:33:09 10° NE
Cosmos 2279 Rocket 4.3 04:26:54 10° S 04:33:01 67° E 04:39:12 10° NNE
SKYMED 2 3.5 04:30:58 10° SSE 04:35:19 88° ENE 04:36:06 60° N
CZ-4B R/B 4.4 04:33:32 10° NNE 04:38:54 44° E 04:44:16 10° S
ATLAS CENTAUR R/B 3.3 04:39:25 18° N 04:41:04 23° NE 04:44:19 10° E
SJ-12 3.9 04:39:57 10° NNE 04:44:06 80° ESE 04:48:11 10° S
Cosmos 1634 Rocket 3.9 04:40:06 10° SSW 04:46:13 63° W 04:52:22 10° N
BREEZE-M DEB (TANK) 3.1 04:47:25 28° SE 04:47:25 28° SE 04:48:51 10° ESE
Cosmos 1943 3.9 04:47:41 34° WSW 04:47:41 34° WSW 04:52:03 10° S
Cosmos 1331 Rocket 4.4 04:45:46 10° S 04:50:51 65° ESE 04:56:00 10° NNE
Timation 1 Rocket 4.5 04:49:39 35° WSW 04:51:43 50° NW 04:57:32 10° NNE
Meteor 1-18 Rocket 4.2 04:49:55 33° NW 04:52:11 53° W 04:57:35 10° S
ATLAS 5 CENTAUR R/B 4.1 04:52:20 11° N 04:52:20 11° N 04:54:01 10° N
PSLV R/B 3.8 04:50:26 10° N 04:54:30 60° WNW 04:58:34 10° SSW
USA 116 4.2 04:55:33 10° SSE 05:00:12 84° WSW 05:05:23 10° NNW
Okean 3 3.3 04:57:57 22° NNW 05:00:37 82° W 05:04:49 10° S
Cosmos 1536 4.5 04:57:20 10° SSE 05:01:04 36° E 05:04:49 10° NNE
Geosat 3.9 04:57:49 10° SSE 05:02:49 69° WSW 05:05:42 26° NW
Orbus 7S? 2.5 05:03:14 60° S 05:03:30 68° SE 05:06:01 10° NE
ADEOS Rocket 4.3 04:57:28 10° SE 05:03:43 43° ENE 05:09:25 10° N
Cosmos 1110 Rocket 3.9 05:01:33 10° SSW 05:06:44 84° WNW 05:11:57 10° NNE
Cosmos 1655 Rocket 3.9 05:06:01 10° N 05:12:15 80° W 05:18:28 10° S
PAYLOAD B 4.1 05:08:50 10° NNE 05:14:22 75° WNW 05:19:54 10° SSW
Cosmos 332 Rocket 3.7 05:10:20 10° SSW 05:15:15 86° WNW 05:20:11 10° NNE
Meteor 1-11 Rocket 4.1 05:09:38 10° S 05:15:22 70° E 05:21:15 10° NNE
Meteor 2-13 Rocket 4.4 05:10:47 10° NNW 05:16:53 71° W 05:23:00 10° S
Cosmos 1500 3.1 05:15:08 10° S 05:18:58 85° W 05:22:48 10° N
Cosmos 1346 Rocket 3.4 05:15:57 10° SW 05:19:27 32° WNW 05:23:00 10° N
Cosmos 1515 4.0 05:19:47 26° NW 05:21:28 43° W 05:25:06 10° SSW
BREEZE-M DEB (TANK) 3.2 05:17:38 22° W 05:21:45 55° NNW 05:24:39 10° ENE
COSMO-SKYMED 1 3.4 05:19:42 10° SSW 05:23:29 29° W 05:24:39 25° WNW
SOZ 4.0 05:23:30 41° NNW 05:23:55 51° NNE 05:26:00 10° ESE
SMAP 4.3 05:19:54 10° NNE 05:24:23 45° E 05:28:50 10° S
MOS 1-B 4.5 05:19:54 10° N 05:25:28 51° WNW 05:31:01 10° SW
USA 234 3.4 05:21:06 10° NE 05:27:28 57° NNW 05:33:33 11° WSW
Cosmos 44 3.6 05:24:43 18° WSW 05:27:45 39° NW 05:31:59 10° NNE
Meteor 1-5 Rocket 4.2 05:21:53 10° SSW 05:27:49 80° WNW 05:33:38 10° N
Helios 1A Rocket 2.8 05:24:57 10° N 05:28:59 65° WNW 05:32:56 10° SSW
GEOS 3 Rocket 4.1 05:25:28 10° S 05:30:14 40° WSW 05:33:30 19° WNW
ATLAS 3B R/B 4.4 05:26:20 10° S 05:32:17 35° ESE 05:38:10 10° NE
Meteor 2-4 Rocket 3.8 05:27:29 10° NNW 05:32:44 49° W 05:37:52 10° SSW
NOSS 3-2 (C) 4.3 05:27:13 10° SSW 05:32:46 53° ESE 05:39:00 10° NE
Cosmos 371 Rocket 3.5 05:30:43 10° SW 05:35:23 46° WNW 05:40:06 10° N
Cosmos 1733 Rocket 3.1 05:31:52 10° SSW 05:36:04 51° WNW 05:40:18 10° N
ALOS 2.7 05:31:57 10° N 05:36:17 38° WNW 05:40:36 10° SW
USA 81 4.3 05:32:04 10° N 05:37:22 73° E 05:42:38 10° S
IRIDIUM 103 4.5 05:33:03 10° N 05:38:19 80° E 05:43:32 10° S
Cosmos 2278 Rocket 4.3 05:34:16 10° SSE 05:39:07 30° ESE 05:43:59 10° NE
Cosmos 2263 Rocket 3.4 05:39:36 17° WNW 05:41:16 19° NW 05:45:15 10° N
Okean O Rocket 2.0 05:45:06 10° N 05:49:12 39° WNW 05:53:17 10° SW
Cosmos 2266 Rocket 4.0 05:44:18 10° NNW 05:50:24 60° W 05:56:22 10° S
FENGYUN 3A 4.2 05:50:23 10° N 05:55:10 33° WNW 05:59:56 10° SW
IRIDIUM 106 4.3 05:51:24 10° N 05:56:37 72° W 06:01:47 10° S
Cosmos 1833 Rocket 3.8 05:53:53 10° NNW 05:59:17 43° ENE 06:04:38 10° SE
Cosmos 1302 Rocket 4.1 05:56:34 10° SW 06:01:47 60° WNW 06:07:03 10° NNE
Cosmos 1666 2.6 05:59:09 10° SSW 06:02:56 63° W 06:06:42 10° N
SAR-Lupe-2 4.2 06:00:06 10° SSE 06:03:38 57° ENE 06:07:10 10° N
Cosmos 1674 Rocket 4.2 06:01:45 10° NNW 06:05:38 32° W 06:09:28 10° SSW
Meteor 2-19 Rocket 4.5 06:00:10 10° NNW 06:06:21 77° W 06:12:28 10° S
Cosmos 1975 Rocket 3.4 06:03:21 10° N 06:07:49 71° E 06:12:16 10° SSE
Cosmos 968 Rocket 3.6 06:03:47 10° NNW 06:08:58 81° ENE 06:14:05 10° SSE
Cosmos 1503 Rocket 4.3 06:03:52 10° NNW 06:09:12 74° ENE 06:14:33 10° SSE
Cosmos 1782 Rocket 3.7 06:06:40 10° S 06:11:05 83° E 06:15:30 10° N
Cosmos 1844 Rocket 3.1 06:06:44 10° SW 06:11:58 40° NW 06:17:14 10° NNE
Cosmos 389 Rocket 3.7 06:09:25 10° N 06:12:47 43° ENE 06:16:05 10° SSE
Cosmos 2098 Rocket 4.5 06:08:47 10° N 06:12:57 46° E 06:18:10 10° SSE
Okean-O 2.9 06:09:30 10° NNE 06:13:58 76° ESE 06:18:23 10° S
COSMOS 2406 3.2 06:13:02 10° NNW 06:18:44 76° WSW 06:24:23 10° SSE
Cosmos 1844 4.0 06:13:16 10° SW 06:18:49 46° WNW 06:24:21 10° NNE
CZ-4B R/B 4.0 06:14:24 10° N 06:19:17 31° WNW 06:24:10 10° WSW
Cosmos 44 Rocket 3.3 06:15:09 10° SW 06:19:58 60° NW 06:24:43 10° NNE
ATLAS CENTAUR R/B 1.7 06:16:15 10° NW 06:20:16 48° WSW 06:23:59 10° SSE
Radarsat Rocket 4.4 06:14:28 10° N 06:20:32 51° WNW 06:27:18 10° SW
NOSS 3-2 (A) 3.6 06:15:12 10° WSW 06:20:55 56° NW 06:27:29 10° NE
Cosmos 1354 Rocket 4.2 06:16:35 10° NNW 06:21:56 85° ENE 06:27:16 10° SSE
Cosmos 1378 Rocket 4.4 06:18:39 10° NNW 06:22:32 31° W 06:26:25 10° SSW
CZ-4 R/B 2.5 06:20:01 10° NNE 06:23:49 48° E 06:27:40 10° S
Okean 2 Rocket 4.2 06:20:15 10° SSE 06:24:28 50° E 06:28:46 10° NNE
IRS-1C Rocket 4.2 06:20:47 10° N 06:25:54 54° WNW 06:31:00 10° SW
